This demonstration page uses our WeatherBlox Daily Observations layout. Learn more.

Left ArrowRight Arrow

Hourly Observations for November 17, 2020

Temp ( °F °C ) Dew Point ( °F °C ) Humidity (%) Winds ( mph kmh ) Pressure ( in mb ) Visibility ( mi km ) Precip ( " mm )
12:52 am 00:52 Mostly Clear 29 -1.7 27 -2.8 92 92 N 5 7 30.44 1031 10 16 0.00 0.00
1:52 am 01:52 Mostly Clear 25 -3.9 23 -5 92 92 NNW 5 7 30.45 1031 10 16 0.00 0.00
2:52 am 02:52 Partly Cloudy 26 -3.3 24 -4.4 92 92 N 6 9 30.47 1032 10 16 0.00 0.00
3:52 am 03:52 Cloudy 30 -1.1 27 -2.8 88 88 W 5 7 30.47 1032 10 16 0.00 0.00
4:52 am 04:52 Mostly Clear 28 -2.2 26 -3.3 92 92 N 3 6 30.50 1033 10 16 0.00 0.00
5:52 am 05:52 Cloudy 30 -1.1 27 -2.8 88 88 Calm 30.50 1033 10 16 0.00 0.00
6:52 am 06:52 Cloudy 33 0.6 28 -2.2 82 82 SSE 6 9 30.50 1033 10 16 0.00 0.00
7:52 am 07:52 Mostly Cloudy 34 1.1 28 -2.2 79 79 ESE 6 9 30.53 1034 10 16 0.00 0.00
8:52 am 08:52 Partly Cloudy 36 2.2 28 -2.2 73 73 SSE 10 17 30.54 1034 10 16 0.00 0.00
9:52 am 09:52 Mostly Sunny 40 4.4 28 -2.2 63 63 SSE 12 19 30.54 1034 10 16 0.00 0.00
10:52 am 10:52 Mostly Sunny 44 6.7 28 -2.2 53 53 SSE 10 17 30.52 1034 10 16 0.00 0.00
11:52 am 11:52 Mostly Sunny 48 8.9 29 -1.7 48 48 SE 15 24 30.48 1032 10 16 0.00 0.00
12:52 pm 12:52 Sunny 51 10.6 30 -1.1 44 44 SSE 15 24 30.43 1031 10 16 0.00 0.00
1:52 pm 13:52 Sunny 54 12.2 29 -1.7 38 38 SSE 15 24 30.38 1029 10 16 0.00 0.00
2:52 pm 14:52 Sunny 54 12.2 29 -1.7 38 38 SSE 18 30 30.35 1028 10 16 0.00 0.00
3:52 pm 15:52 Mostly Sunny 55 12.8 28 -2.2 35 35 SSE 20 31 30.32 1027 10 16 0.00 0.00
4:52 pm 16:52 Mostly Sunny 51 10.6 28 -2.2 41 41 SSE 12 19 30.32 1027 10 16 0.00 0.00
5:52 pm 17:52 Mostly Clear 49 9.4 29 -1.7 46 46 SE 16 26 30.32 1027 10 16 0.00 0.00
6:52 pm 18:52 Mostly Clear 48 8.9 29 -1.7 48 48 SSE 18 30 30.30 1026 10 16 0.00 0.00
7:52 pm 19:52 Partly Cloudy 47 8.3 29 -1.7 50 50 SSE 20 31 30.29 1026 10 16 0.00 0.00
8:52 pm 20:52 Mostly Clear 45 7.2 30 -1.1 56 56 SSE 15 24 30.27 1025 10 16 0.00 0.00
9:52 pm 21:52 Clear 45 7.2 31 -0.6 58 58 SSE 16 26 30.25 1025 10 16 0.00 0.00
10:52 pm 22:52 Clear 43 6.1 31 -0.6 63 63 SSE 15 24 30.24 1024 10 16 0.00 0.00
11:52 pm 23:52 Clear 42 5.6 31 -0.6 65 65 SSE 13 20 30.22 1024 10 16 0.00 0.00

Powered by AerisWeather